Tracking 22836 objects as of 16-Apr-2021
HD Live streaming from Space Station
objects crossing your sky now

WESTAR 5

Track WESTAR 5 now!
WESTAR 5 is classified as:


NORAD ID: 13269
Int'l Code: 1982-058A
Perigee: 36,048.9 km
Apogee: 36,134.5 km
Inclination: 14.8 °
Period: 1,451.3 minutes
Semi major axis: 42462 km
RCS: 3.0486 m2 (large)
Launch date: June 9, 1982
Source: United States (US)
Launch site: AIR FORCE EASTERN TEST RANGE (AFETR)
aabbcc
Your satellite tracking list
Your tracking list is empty




NASA's NSSDC Master Catalog

Two Line Element Set (TLE):
1 13269U 82058A   21105.02202226 -.00000262  00000-0  00000+0 0  9999
2 13269  14.8372 351.7013 0010086 229.8567 325.1908  0.99218216100784
Source of the keplerian elements: AFSPC